Regional Weather Roundup
Issued by NWS

Home | Current Version | Previous Version | Text Only | Print | Product List | Glossary Off
Versions: 1 2 3 4 5 6 7 8 9 10 11 12 13 14 15 16 17 18 19 20 21 22 23 24 25 26 27 28 29 30 31 32 33 34 35 36 37 38 39 40 41 42 43 44 45 46 47 48 49 50

000
ASUS45 KSLC 282310
RWRUT

UTAH REGIONAL WEATHER ROUNDUP
NATIONAL WEATHER SERVICE SALT LAKE CITY UT
500 PM MDT TUE JUL 28 2015

UTZ001>011-023>025-290000-

NORTHERN UTAH

CITY           SKY/WX    TMP DP  RH WIND       PRES   REMARKS
BRIGHAM CITY   SUNNY     76  15  10 NW3       30.23F
HILL AFB       SUNNY     74  21  13 VRB3      30.25F
LOGAN          SUNNY     74  23  15 CALM      30.24F
OGDEN          SUNNY     75  23  14 VRB5      30.23F
PROVO AIRPORT  SUNNY     77  36  22 NW9       30.21F
SALT LAKE CITY SUNNY     77  27  15 NW13      30.21F
VERNAL         SUNNY     81  23  11 SE9       30.16F
WENDOVER       SUNNY     77  27  15 SE7       30.22F
HEBER CITY     SUNNY     79  21  11 W6        30.23F
WEST JORDAN    SUNNY     75  28  17 NW14      30.24F

$$

UTZ012>022-026-027-290000-

SOUTHERN/CENTRAL UTAH

CITY           SKY/WX    TMP DP  RH WIND       PRES   REMARKS
BLANDING       SUNNY     89  28  11 SW9       30.21F
BRYCE CANYON   SUNNY     80  26  13 VRB6      30.28F
CEDAR CITY     SUNNY     86  24  10 N5        30.16F
DELTA          SUNNY     82  25  12 NW9       30.17F
HANKSVILLE     SUNNY     91  30  11 CALM      30.07F
MILFORD        SUNNY     85  30  13 N14G23    30.15F
MOAB/CYNLANDS  SUNNY     90  23   9 W14G20    30.06F
PRICE          SUNNY     86  23  10 W12G28    30.19S
ST GEORGE      CLEAR     99  34  10 NE5       29.95F HX  93
KANAB          SUNNY     91  28  10 W7        30.13F

$$

REGIONAL REPORTS     COLORADO/ARIZONA

CITY           SKY/WX    TMP DP  RH WIND       PRES   REMARKS
CRAIG, CO      SUNNY     82  30  15 W12       30.23F
GRAND JUNCTION SUNNY     88  24  10 NW7G22    30.08F
RIFLE            N/A     89  27  10 W10G18    30.12F
MONTROSE       SUNNY     87  33  14 N9        30.15F
CORTEZ         SUNNY     89  22   8 NW6G18    30.14F
PAGE, AZ       SUNNY     95  24   8 VRB5      30.02F
GRAND CANYON   SUNNY     85  21   9 SW15G22   30.23F
KINGMAN        SUNNY     99  23   6 W12       29.98F HX  92
FLAGSTAFF      MOSUNNY   81  35  19 SW10G20   30.25F

$$

REGIONAL REPORTS    NEVADA/IDAHO/WYOMING

CITY           SKY/WX    TMP DP  RH WIND       PRES   REMARKS
LAS VEGAS, NV  SUNNY    100  27   7 CALM      29.84F HX  93
ELY            SUNNY     81  24  12 N12G18    30.21F
ELKO           SUNNY     79  12   8 VRB3      30.21F
POCATELLO, ID  MOSUNNY   72  30  21 NW6       30.28F
BURLEY         SUNNY     73  25  16 N3        30.24F
EVANSTON, WY   SUNNY     69  15  12 MISG      30.33F
ROCK SPRINGS   SUNNY     71  15  11 W13G24    30.30F
KEMMERER       SUNNY     68  19  15 W10G22    30.35F

$$


USA.gov is the U.S. government's official web portal to all federal, state and local government web resources and services.